Location: Kergonan
(48.2337°N, 4.5518°W)
Time: 22:24:08
(UTC+00:00)

CZ-3 R/B - Pass Details

Date: 18 January 2020
Orbit: 346 x 10269 km, 28.4° (Epoch: 23 February)

Event Time Altitude Azimuth Distance (km) Brightness Sun altitude
Exits shadow 04:55:38 22° 226° (SW) 5,869 5.0 -30.6°
Maximum altitude 05:04:01 29° 193° (SSW) 3,674 4.3 -29.2°
Drops below altitude 10° 05:11:28 10° 136° (SE) 3,275 4.7 -27.9°
Sets 05:13:43 0° 123° (ESE) 3,712 5.4 -27.6°
